Location: Newark
(42.7133°N, 87.7910°W)
Time: 21:43:10
(UTC+00:00)

Tiros 1 - Pass Details

Date: 22 September 2019
Orbit: 630 x 664 km, 48.4° (Epoch: 16 October)

Event Time Altitude Azimuth Distance (km) Brightness Sun altitude
Rises 00:32:17 0° 293° (WNW) 2,937 12.4 -8.5°
Reaches altitude 10° 00:34:44 10° 285° (WNW) 2,021 11.4 -8.9°
Maximum altitude 00:39:00 37° 219° (SW) 990 8.4 -9.7°
Drops below altitude 10° 00:43:13 10° 152° (SSE) 1,999 9.3 -10.4°
Enters shadow 00:44:31 - 147° (SSE) 2,472 9.7 -10.7°
Sets 00:45:39 0° 144° (SE) 2,902 - -10.9°
